SCP
1 0 0 0 0 0 1 1 1 1 0 0 0 0 0 0 0 0 0 0 0 0 0 0 0 0 0 0 0 0 0 0 0 0 0 0 0 0 0 0 0 0 0
1 1 0 0 0 0 1 1 0 0 0 0 0 0 0 0 0 0 0 0 0 0 1 0 0 0 0 0 0 0 0 0 0 0 0 0 0 0 0 0 0 0 0
0 0 1 0 0 0 0 1 0 0 0 0 0 0 0 0 0 0 0 1 1 1 1 1 0 0 0 0 0 0 0 0 0 0 0 0 0 0 0 0 0 0 0
0 0 0 1 1 0 0 0 0 0 0 0 0 0 0 0 0 0 0 1 1 1 1 1 0 0 0 0 0 0 0 0 0 0 0 0 0 0 0 0 0 0 0
0 0 0 0 0 0 0 0 0 0 0 0 0 0 0 0 0 0 0 0 0 1 1 1 1 0 0 0 0 0 0 0 0 0 0 0 0 0 0 0 0 0 0
0 0 0 0 0 0 0 0 0 0 0 0 0 0 0 0 0 0 0 0 1 1 0 0 1 0 0 0 0 0 0 0 0 0 0 0 0 0 0 0 0 0 0
0 0 0 0 0 0 0 0 0 0 0 0 0 0 0 0 0 0 0 0 1 0 0 0 0 0 0 0 0 0 0 0 0 0 0 0 0 0 0 0 0 0 0
-0 -0 0 0 0 0 0 0 0 0 0 0 0 0 0 0 0 0 0 0 0 0 0 0 0 0 0 0 0 0 0 0 0 0 0 0 0 0 0 0 0 0 0
-0 0 0 0 0 0 0 0 0 0 0 0 0 0 0 0 0 0 0 0 0 0 0 0 0 0 0 0 0 0 0 0 0 0 0 0 0 0 0 0 0 0 0
-0 -0 -0 0 0 0 0 0 0 0 0 0 0 0 0 0 0 0 0 0 0 0 0 0 0 0 0 0 0 0 0 0 0 0 0 0 0 0 0 0 0 0 0
-0 -0 -0 -0 0 0 0 0 0 0 0 0 0 0 0 0 0 0 0 0 0 0 0 0 0 0 0 0 0 0 0 0 0 0 0 0 0 0 0 0 0 0 0
0 0 -0 -0 0 0 0 0 0 0 0 0 0 0 0 0 0 0 0 0 0 0 0 0 0 0 0 0 0 0 0 0 0 0 0 0 0 0 0 0 0 0 0
0 0 0 0 0 0 0 0 0 0 0 0 0 0 0 0 0 0 0 0 0 0 0 0 0 0 0 0 0 0 0 0 0 0 0 0 0 0 0 0 0 0 0
0 0 0 0 0 0 0 0 0 0 0 0 0 0 0 0 0 0 0 0 0 0 0 0 0 0 0 0 0 0 0 0 0 0 0 0 0 0 0 0 0 0 0
0 0 0 0 0 0 0 0 0 0 0 0 0 0 0 0 0 0 0 0 0 0 0 0 0 0 0 0 0 0 0 0 0 0 0 0 0 0 0 0 0 0 0
0 0 0 0 0 0 0 0 0 0 0 0 0 0 0 0 0 0 0 0 0 0 0 0 0 0 0 0 0 0 0 0 0 0 0 0 0 0 0 0 0 0 0
0 0 0 0 0 0 0 0 0 0 0 0 0 0 0 0 0 0 0 0 0 0 0 0 0 0 0 0 0 0 0 0 0 0 0 0 0 0 0 0 0 0 0
0 0 0 -0 -0 -0 0 0 0 0 0 0 0 0 0 0 0 0 0 0 0 0 0 0 0 0 0 0 0 0 0 0 0 0 0 0 0 0 0 0 0 -0 0
0 0 -0 -0 -0 0 0 0 0 0 0 0 0 0 0 0 0 0 0 0 0 0 0 0 0 0 0 0 0 0 0 0 0 0 0 0 0 0 0 0 0 0 0
0 0 0 0 0 0 0 0 0 0 0 0 0 0 0 0 0 0 0 0 0 0 0 0 0 0 0 0 0 0 0 0 0 0 0 0 0 0 0 0 0 0 0
0 0 0 0 0 0 0 0 0 0 0 0 0 0 0 0 0 0 0 0 0 0 0 0 0 0 0 0 0 0 0 0 0 0 0 -0 -0 0 0 -0 0 -0 -0
0 0 0 -0 0 0 0 0 0 0 0 0 0 0 0 -0 -0 0 0 0 0 0 0 0 0 0 0 0 0 0 0 0 0 -0 -0 -0 0 0 0 0 -0 -0 0
-0 -0 -0 0 0 0 0 0 0 0 0 0 0 0 0 0 0 0 0 0 0 0 0 0 0 0 0 0 0 0 0 0 0 -0 -0 -0 0 0 0 -0 0 -0 -0
-0 -0 -0 -0 0 0 0 0 0 0 0 0 -0 0 0 0 0 0 0 0 0 0 0 0 0 0 0 0 -0 -0 -0 0 0 -0 -0 -0 0 0 -0 0 0 -0 0
-0 -0 0 0 0 0 0 0 0 -0 0 0 0 0 0 0 0 0 0 0 0 0 0 0 0 -0 0 -0 -0 0 0 0 0 -0 -0 0 -0 -0 -0 0 0 0 0
0 0 0 0 0 0 0 0 -0 0 0 0 0 0 0 0 0 0 0 0 0 0 0 -0 0 0 -0 0 -0 -0 0 0 0 -0 -0 -0 -0 -0 0 0 0 0 -0
Wind_Speed_500mb
29 30 36 35 37 36 35 31 30 30 31 30 27 27 35 38 40 42 31 22 25 30 38 34 38 30 28 33 29 23 21 20 25 31 37 41 47 50 48 36 27 27 28
32 34 35 38 39 43 45 42 38 34 35 35 34 30 26 27 33 39 35 31 32 31 39 44 43 35 32 33 33 23 24 24 26 32 37 40 44 47 46 34 23 25 23
32 33 35 42 44 44 47 50 55 47 44 41 37 30 33 33 33 32 36 35 36 38 40 47 46 38 33 34 39 30 27 30 35 36 38 39 42 46 45 34 29 25 27
28 31 38 38 39 51 50 52 51 46 45 45 48 48 43 42 41 42 45 46 43 38 40 50 48 42 35 34 37 34 33 36 38 40 41 43 43 44 36 25 26 24 26
35 39 35 37 44 42 47 51 54 52 48 46 41 40 52 54 49 53 54 57 53 46 43 48 50 42 36 32 40 38 40 41 41 36 39 38 38 43 36 28 30 25 24
29 30 37 39 37 41 40 44 47 51 53 48 50 45 45 49 56 52 56 59 56 53 53 53 50 47 40 29 52 44 48 44 44 42 41 34 39 40 31 31 27 29 29
39 33 24 23 34 36 29 38 46 46 47 55 55 48 49 52 52 53 50 54 60 60 62 55 54 53 43 36 57 50 55 50 47 44 28 29 36 35 29 30 28 29 30
35 41 39 28 22 28 30 27 34 41 45 31 51 47 44 45 51 49 50 44 49 56 54 54 58 54 52 55 42 57 60 49 43 37 32 29 36 34 28 28 29 29 30
38 39 40 39 33 25 27 28 32 41 48 47 48 44 20 26 38 33 36 39 48 48 51 52 60 61 40 49 50 61 60 38 39 24 30 32 32 32 24 23 26 27 28
42 48 46 41 37 35 33 31 37 37 42 48 52 59 53 51 47 30 31 30 39 51 54 51 61 68 45 47 58 59 37 24 23 24 23 25 26 24 23 22 25 26 28
49 56 52 49 44 36 34 38 36 40 42 48 50 57 55 56 54 56 42 37 40 40 45 56 63 63 68 61 66 52 32 8 15 13 19 19 20 23 25 24 28 27 27
54 53 56 51 48 45 38 36 44 41 43 50 51 55 57 62 51 44 41 43 44 39 46 42 49 55 64 59 48 36 21 4 9 12 13 16 20 21 23 25 29 31 28
54 54 57 53 55 58 53 42 42 51 47 47 49 56 56 60 58 55 51 40 41 42 41 44 48 51 56 52 39 23 13 19 17 13 14 15 18 20 23 26 29 31 29
53 54 53 58 61 67 67 56 47 46 55 51 49 54 54 52 53 55 47 46 46 41 39 40 45 46 45 40 30 20 18 23 19 19 17 18 22 24 24 24 26 30 27
46 48 54 63 70 73 77 62 56 53 51 56 56 51 53 46 42 52 48 48 46 41 44 41 36 46 44 40 30 26 25 23 23 23 25 22 25 25 27 27 24 26 26
50 55 62 68 76 83 83 67 60 57 55 54 60 53 50 53 47 52 50 46 42 42 34 45 48 45 50 44 36 32 28 22 22 28 26 26 27 29 28 28 24 24 25
63 71 76 83 86 91 91 73 61 59 59 57 59 55 47 44 47 42 55 47 40 39 38 27 36 43 50 53 46 39 31 25 24 27 25 27 30 33 33 32 29 26 25
83 88 89 91 93 98 92 71 61 58 59 60 58 55 52 46 51 43 52 49 42 39 38 33 30 43 49 54 45 39 35 25 19 25 26 30 30 35 39 38 36 28 27
87 89 88 88 88 85 75 62 58 56 55 56 55 55 48 39 49 46 59 51 40 40 39 36 33 43 55 58 51 44 35 22 18 19 23 30 33 36 41 42 39 33 33
75 76 73 72 71 65 59 57 52 51 50 50 48 55 49 37 39 51 61 45 39 38 39 34 33 52 58 63 55 53 41 28 20 15 20 29 31 36 41 39 39 43 45
60 61 66 68 62 55 52 49 45 47 47 47 46 48 42 26 43 52 47 41 36 41 37 35 40 58 61 71 64 54 36 33 21 14 15 27 29 35 37 42 50 44 39
51 56 61 62 56 50 45 41 45 47 47 48 51 47 45 24 27 62 50 56 48 39 34 34 40 51 69 77 59 45 42 38 24 15 11 22 29 35 43 46 42 50 50
52 59 66 57 48 45 41 43 37 43 52 50 45 42 38 47 28 38 55 72 59 33 23 17 37 44 81 81 58 53 47 35 23 20 14 22 25 34 40 38 49 56 54
67 62 62 43 44 39 40 41 43 39 47 47 42 39 33 45 44 33 26 48 32 30 28 31 26 30 64 57 51 46 47 37 27 21 13 22 29 35 28 36 46 51 56
51 48 39 37 36 39 32 39 35 43 37 40 39 38 37 40 57 56 54 65 36 38 37 22 17 43 57 62 57 53 48 40 34 24 12 9 15 30 31 32 30 36 44
43 35 32 31 29 29 34 31 31 40 40 38 33 36 36 36 49 49 62 59 51 50 45 64 67 66 65 56 50 32 38 33 29 24 12 3 5 14 19 30 30 27 28
Wind_Direction_500mb
268 266 270 271 275 277 276 278 281 284 285 290 298 296 265 257 258 262 259 276 273 256 244 252 252 259 252 268 278 286 296 317 336 334 342 340 344 344 343 346 350 341 342
271 265 261 261 269 275 277 274 271 280 286 282 282 289 289 258 265 258 256 269 274 260 246 243 248 255 254 260 275 279 295 306 322 326 332 336 341 340 339 333 332 324 327
281 283 275 266 260 260 273 275 277 275 282 282 283 288 288 270 265 260 257 268 272 253 246 242 249 255 264 266 271 278 282 299 309 317 322 328 334 337 337 341 342 348 328
309 296 285 281 279 266 264 271 271 269 274 283 280 281 285 280 263 263 268 266 268 263 252 243 247 250 247 249 267 284 284 287 300 317 316 324 331 338 339 338 330 319 332
311 305 307 298 285 285 269 269 270 267 269 273 272 280 280 280 281 264 262 264 265 262 260 250 246 242 237 244 247 267 274 282 286 306 311 325 330 336 333 331 324 328 323
327 318 301 299 298 289 286 275 273 275 270 275 282 272 274 278 281 285 269 262 261 260 261 253 250 239 232 235 231 249 268 270 287 295 311 329 335 334 331 324 326 324 323
317 325 325 307 293 294 288 276 275 275 286 266 270 268 267 276 278 275 273 261 269 264 261 257 252 244 228 234 215 242 261 266 289 295 319 338 338 332 325 326 327 335 334
315 322 321 320 306 289 285 279 268 276 277 263 280 284 279 280 280 271 269 262 264 258 256 260 257 240 221 220 251 253 256 260 283 304 317 337 337 323 324 339 339 335 337
337 327 318 314 309 299 284 273 268 266 274 277 283 278 278 273 281 279 274 267 253 252 258 258 253 239 212 230 262 249 253 270 290 305 319 341 334 321 334 343 332 335 344
339 339 326 319 307 298 291 279 265 258 266 271 270 270 272 269 276 284 278 272 262 251 253 255 243 236 253 237 251 233 239 254 289 305 338 346 319 330 344 336 339 339 343
329 333 328 323 320 306 289 277 274 264 257 259 269 269 270 275 273 270 264 261 264 265 255 246 240 229 251 238 225 229 241 235 289 353 4 334 331 340 343 336 342 341 344
319 322 329 326 326 322 305 282 271 269 268 264 259 261 263 266 265 265 265 261 255 254 238 249 241 240 220 223 223 226 237 229 54 35 8 343 342 352 350 344 346 345 344
308 313 320 325 325 326 318 297 275 267 268 269 269 264 268 263 257 259 262 263 249 243 240 241 234 228 224 218 220 210 168 102 87 46 9 350 354 357 347 347 349 348 349
298 306 313 314 315 323 318 303 285 271 267 265 267 266 265 264 260 255 252 255 243 231 230 226 229 229 221 221 215 181 137 107 80 50 26 16 12 8 352 343 345 350 353
283 292 300 307 308 314 318 304 289 276 269 266 263 270 253 256 254 256 246 247 249 239 229 222 218 225 224 222 204 150 128 112 85 47 27 16 12 1 356 349 344 351 358
280 287 293 297 300 307 311 301 289 277 271 264 262 268 258 249 252 253 242 241 248 246 237 225 220 225 219 206 187 155 132 111 69 51 37 30 17 9 0 355 350 351 353
285 288 292 296 299 301 303 296 284 276 267 263 261 263 262 252 248 251 241 233 237 238 242 228 223 221 212 196 175 155 132 104 77 56 44 32 27 22 14 6 358 352 343
289 291 293 294 295 294 295 287 281 273 264 261 262 258 263 245 234 254 239 232 235 241 245 231 212 209 200 192 178 154 134 115 78 65 49 37 29 20 14 9 6 357 349
290 290 291 291 289 285 283 280 274 268 261 262 262 251 260 252 240 237 235 228 241 238 243 235 203 194 191 181 169 154 137 132 108 77 55 34 27 18 12 9 10 10 3
284 285 285 285 283 281 276 274 266 261 262 263 259 247 254 236 234 232 231 232 238 232 230 223 189 180 185 177 175 157 154 151 134 94 53 33 26 17 17 13 17 13 8
278 279 282 286 283 275 268 264 262 265 265 259 251 241 244 236 231 219 230 229 228 229 216 206 180 180 181 179 171 165 157 156 157 105 55 38 30 23 24 22 22 16 11
278 281 284 286 276 266 264 260 264 264 259 255 249 231 227 212 243 220 220 217 225 226 210 213 203 193 183 184 165 168 169 167 163 145 81 47 31 31 31 33 29 24 29
280 287 286 279 267 267 265 267 261 262 261 250 238 237 224 215 242 219 236 208 222 231 240 243 209 202 187 181 168 160 174 167 158 141 113 58 38 40 39 36 40 44 41
282 280 278 263 273 271 265 262 271 267 245 233 230 223 212 209 216 213 190 176 193 209 202 195 212 215 187 169 151 143 159 162 154 143 131 69 47 53 47 52 50 48 46
278 278 269 274 281 267 270 278 259 229 228 219 205 199 216 201 199 207 214 183 186 176 174 177 163 148 156 144 140 152 165 168 161 159 150 91 63 42 51 52 46 44 44
272 273 277 285 278 279 290 285 245 214 194 182 177 189 202 201 203 197 180 177 182 168 159 142 141 144 138 137 146 148 156 166 168 168 168 74 15 2 42 48 48 40 41
Wind_Speed_850mb
29 30 36 35 37 36 35 31 30 30 31 30 27 27 35 38 40 42 31 22 25 30 38 34 38 30 28 33 29 23 21 20 25 31 37 41 47 50 48 36 27 27 28
32 34 35 38 39 43 45 42 38 34 35 35 34 30 26 27 33 39 35 31 32 31 39 44 43 35 32 33 33 23 24 24 26 32 37 40 44 47 46 34 23 25 23
32 33 35 42 44 44 47 50 55 47 44 41 37 30 33 33 33 32 36 35 36 38 40 47 46 38 33 34 39 30 27 30 35 36 38 39 42 46 45 34 29 25 27
28 31 38 38 39 51 50 52 51 46 45 45 48 48 43 42 41 42 45 46 43 38 40 50 48 42 35 34 37 34 33 36 38 40 41 43 43 44 36 25 26 24 26
35 39 35 37 44 42 47 51 54 52 48 46 41 40 52 54 49 53 54 57 53 46 43 48 50 42 36 32 40 38 40 41 41 36 39 38 38 43 36 28 30 25 24
29 30 37 39 37 41 40 44 47 51 53 48 50 45 45 49 56 52 56 59 56 53 53 53 50 47 40 29 52 44 48 44 44 42 41 34 39 40 31 31 27 29 29
39 33 24 23 34 36 29 38 46 46 47 55 55 48 49 52 52 53 50 54 60 60 62 55 54 53 43 36 57 50 55 50 47 44 28 29 36 35 29 30 28 29 30
35 41 39 28 22 28 30 27 34 41 45 31 51 47 44 45 51 49 50 44 49 56 54 54 58 54 52 55 42 57 60 49 43 37 32 29 36 34 28 28 29 29 30
38 39 40 39 33 25 27 28 32 41 48 47 48 44 20 26 38 33 36 39 48 48 51 52 60 61 40 49 50 61 60 38 39 24 30 32 32 32 24 23 26 27 28
42 48 46 41 37 35 33 31 37 37 42 48 52 59 53 51 47 30 31 30 39 51 54 51 61 68 45 47 58 59 37 24 23 24 23 25 26 24 23 22 25 26 28
49 56 52 49 44 36 34 38 36 40 42 48 50 57 55 56 54 56 42 37 40 40 45 56 63 63 68 61 66 52 32 8 15 13 19 19 20 23 25 24 28 27 27
54 53 56 51 48 45 38 36 44 41 43 50 51 55 57 62 51 44 41 43 44 39 46 42 49 55 64 59 48 36 21 4 9 12 13 16 20 21 23 25 29 31 28
54 54 57 53 55 58 53 42 42 51 47 47 49 56 56 60 58 55 51 40 41 42 41 44 48 51 56 52 39 23 13 19 17 13 14 15 18 20 23 26 29 31 29
53 54 53 58 61 67 67 56 47 46 55 51 49 54 54 52 53 55 47 46 46 41 39 40 45 46 45 40 30 20 18 23 19 19 17 18 22 24 24 24 26 30 27
46 48 54 63 70 73 77 62 56 53 51 56 56 51 53 46 42 52 48 48 46 41 44 41 36 46 44 40 30 26 25 23 23 23 25 22 25 25 27 27 24 26 26
50 55 62 68 76 83 83 67 60 57 55 54 60 53 50 53 47 52 50 46 42 42 34 45 48 45 50 44 36 32 28 22 22 28 26 26 27 29 28 28 24 24 25
63 71 76 83 86 91 91 73 61 59 59 57 59 55 47 44 47 42 55 47 40 39 38 27 36 43 50 53 46 39 31 25 24 27 25 27 30 33 33 32 29 26 25
83 88 89 91 93 98 92 71 61 58 59 60 58 55 52 46 51 43 52 49 42 39 38 33 30 43 49 54 45 39 35 25 19 25 26 30 30 35 39 38 36 28 27
87 89 88 88 88 85 75 62 58 56 55 56 55 55 48 39 49 46 59 51 40 40 39 36 33 43 55 58 51 44 35 22 18 19 23 30 33 36 41 42 39 33 33
75 76 73 72 71 65 59 57 52 51 50 50 48 55 49 37 39 51 61 45 39 38 39 34 33 52 58 63 55 53 41 28 20 15 20 29 31 36 41 39 39 43 45
60 61 66 68 62 55 52 49 45 47 47 47 46 48 42 26 43 52 47 41 36 41 37 35 40 58 61 71 64 54 36 33 21 14 15 27 29 35 37 42 50 44 39
51 56 61 62 56 50 45 41 45 47 47 48 51 47 45 24 27 62 50 56 48 39 34 34 40 51 69 77 59 45 42 38 24 15 11 22 29 35 43 46 42 50 50
52 59 66 57 48 45 41 43 37 43 52 50 45 42 38 47 28 38 55 72 59 33 23 17 37 44 81 81 58 53 47 35 23 20 14 22 25 34 40 38 49 56 54
67 62 62 43 44 39 40 41 43 39 47 47 42 39 33 45 44 33 26 48 32 30 28 31 26 30 64 57 51 46 47 37 27 21 13 22 29 35 28 36 46 51 56
51 48 39 37 36 39 32 39 35 43 37 40 39 38 37 40 57 56 54 65 36 38 37 22 17 43 57 62 57 53 48 40 34 24 12 9 15 30 31 32 30 36 44
43 35 32 31 29 29 34 31 31 40 40 38 33 36 36 36 49 49 62 59 51 50 45 64 67 66 65 56 50 32 38 33 29 24 12 3 5 14 19 30 30 27 28
Wind_Direction_850mb
268 266 270 271 275 277 276 278 281 284 285 290 298 296 265 257 258 262 259 276 273 256 244 252 252 259 252 268 278 286 296 317 336 334 342 340 344 344 343 346 350 341 342
271 265 261 261 269 275 277 274 271 280 286 282 282 289 289 258 265 258 256 269 274 260 246 243 248 255 254 260 275 279 295 306 322 326 332 336 341 340 339 333 332 324 327
281 283 275 266 260 260 273 275 277 275 282 282 283 288 288 270 265 260 257 268 272 253 246 242 249 255 264 266 271 278 282 299 309 317 322 328 334 337 337 341 342 348 328
309 296 285 281 279 266 264 271 271 269 274 283 280 281 285 280 263 263 268 266 268 263 252 243 247 250 247 249 267 284 284 287 300 317 316 324 331 338 339 338 330 319 332
311 305 307 298 285 285 269 269 270 267 269 273 272 280 280 280 281 264 262 264 265 262 260 250 246 242 237 244 247 267 274 282 286 306 311 325 330 336 333 331 324 328 323
327 318 301 299 298 289 286 275 273 275 270 275 282 272 274 278 281 285 269 262 261 260 261 253 250 239 232 235 231 249 268 270 287 295 311 329 335 334 331 324 326 324 323
317 325 325 307 293 294 288 276 275 275 286 266 270 268 267 276 278 275 273 261 269 264 261 257 252 244 228 234 215 242 261 266 289 295 319 338 338 332 325 326 327 335 334
315 322 321 320 306 289 285 279 268 276 277 263 280 284 279 280 280 271 269 262 264 258 256 260 257 240 221 220 251 253 256 260 283 304 317 337 337 323 324 339 339 335 337
337 327 318 314 309 299 284 273 268 266 274 277 283 278 278 273 281 279 274 267 253 252 258 258 253 239 212 230 262 249 253 270 290 305 319 341 334 321 334 343 332 335 344
339 339 326 319 307 298 291 279 265 258 266 271 270 270 272 269 276 284 278 272 262 251 253 255 243 236 253 237 251 233 239 254 289 305 338 346 319 330 344 336 339 339 343
329 333 328 323 320 306 289 277 274 264 257 259 269 269 270 275 273 270 264 261 264 265 255 246 240 229 251 238 225 229 241 235 289 353 4 334 331 340 343 336 342 341 344
319 322 329 326 326 322 305 282 271 269 268 264 259 261 263 266 265 265 265 261 255 254 238 249 241 240 220 223 223 226 237 229 54 35 8 343 342 352 350 344 346 345 344
308 313 320 325 325 326 318 297 275 267 268 269 269 264 268 263 257 259 262 263 249 243 240 241 234 228 224 218 220 210 168 102 87 46 9 350 354 357 347 347 349 348 349
298 306 313 314 315 323 318 303 285 271 267 265 267 266 265 264 260 255 252 255 243 231 230 226 229 229 221 221 215 181 137 107 80 50 26 16 12 8 352 343 345 350 353
283 292 300 307 308 314 318 304 289 276 269 266 263 270 253 256 254 256 246 247 249 239 229 222 218 225 224 222 204 150 128 112 85 47 27 16 12 1 356 349 344 351 358
280 287 293 297 300 307 311 301 289 277 271 264 262 268 258 249 252 253 242 241 248 246 237 225 220 225 219 206 187 155 132 111 69 51 37 30 17 9 0 355 350 351 353
285 288 292 296 299 301 303 296 284 276 267 263 261 263 262 252 248 251 241 233 237 238 242 228 223 221 212 196 175 155 132 104 77 56 44 32 27 22 14 6 358 352 343
289 291 293 294 295 294 295 287 281 273 264 261 262 258 263 245 234 254 239 232 235 241 245 231 212 209 200 192 178 154 134 115 78 65 49 37 29 20 14 9 6 357 349
290 290 291 291 289 285 283 280 274 268 261 262 262 251 260 252 240 237 235 228 241 238 243 235 203 194 191 181 169 154 137 132 108 77 55 34 27 18 12 9 10 10 3
284 285 285 285 283 281 276 274 266 261 262 263 259 247 254 236 234 232 231 232 238 232 230 223 189 180 185 177 175 157 154 151 134 94 53 33 26 17 17 13 17 13 8
278 279 282 286 283 275 268 264 262 265 265 259 251 241 244 236 231 219 230 229 228 229 216 206 180 180 181 179 171 165 157 156 157 105 55 38 30 23 24 22 22 16 11
278 281 284 286 276 266 264 260 264 264 259 255 249 231 227 212 243 220 220 217 225 226 210 213 203 193 183 184 165 168 169 167 163 145 81 47 31 31 31 33 29 24 29
280 287 286 279 267 267 265 267 261 262 261 250 238 237 224 215 242 219 236 208 222 231 240 243 209 202 187 181 168 160 174 167 158 141 113 58 38 40 39 36 40 44 41
282 280 278 263 273 271 265 262 271 267 245 233 230 223 212 209 216 213 190 176 193 209 202 195 212 215 187 169 151 143 159 162 154 143 131 69 47 53 47 52 50 48 46
278 278 269 274 281 267 270 278 259 229 228 219 205 199 216 201 199 207 214 183 186 176 174 177 163 148 156 144 140 152 165 168 161 159 150 91 63 42 51 52 46 44 44
272 273 277 285 278 279 290 285 245 214 194 182 177 189 202 201 203 197 180 177 182 168 159 142 141 144 138 137 146 148 156 166 168 168 168 74 15 2 42 48 48 40 41